Flag for India Weather past 2 weeks in Chennai, Tamil Nadu, India

Now
79 °F

Broken clouds.


Feels Like: 82 °F
Forecast: 81 / 91 °F
Wind: 3 mph from Southwest

Location: Madras / Minambakkam

Current Time: Sep 22, 2014 at 8:22:27 AM

Latest Report: Sep 22, 2014 at 7:40 AM


Visibility: 2 mi

Pressure: 29.80 "Hg

Humidity: 89%

Dew point: 75 °F

Location of ChennaiLocation

Historic Weather in Chennai — Graph

°F

Chennai temperature yesterday

Maximum temperature yesterday: 93 °F (at 1:10 PM)
Minimum temperature yesterday: 81 °F (at 5:10 AM)
Average temperature yesterday: 86 °F

Past Weeks' High & Low Weather Summary

 TemperatureHumidityPressure
High99 °F (Sep 9, 4:10 PM)100% (Sep 15, 10:10 PM)29.83 "Hg (Sep 15, 10:10 PM)
Low73 °F (Sep 15, 10:10 PM)39% (Sep 9, 4:10 PM)29.56 "Hg (Sep 16, 3:40 PM)
Average84 °F73%29.70 "Hg
* Reported Sep 7 6:40 AM — Sep 22 6:40 AM, Chennai, Weather by CustomWeather, © 2014

Note: Actual official high and low records may vary slightly from our data, if they occured in-between our weather recording intervals... More about our weather records

Advertising

Chennai weather history for previous 24 hours

 ConditionsComfort  
Time TempWeatherWind HumidityBarometerVisibility
6:40 AM
Sep 22
77 °FBroken clouds.5 mph94%29.77 "Hg2 mi
5:40 AM77 °FPartly cloudy.5 mph94%29.74 "Hg2 mi
4:10 AM77 °FThunderstorms. Mostly cloudy.12 mph100%29.74 "Hg1 mi
3:10 AM81 °FPartly cloudy.6 mph89%29.71 "Hg4 mi
2:40 AM81 °FPartly cloudy.6 mph89%29.71 "Hg4 mi
1:40 AM82 °FPartly cloudy.5 mph84%29.74 "Hg4 mi
1:10 AM82 °FPartly cloudy.8 mph84%29.74 "Hg4 mi
12:40 AM82 °FPartly cloudy.6 mph84%29.74 "Hg4 mi
12:10 AM84 °FPartly cloudy.7 mph79%29.77 "Hg4 mi
11:40 PM
Sep 21
84 °FPartly cloudy.5 mph79%29.77 "Hg4 mi
11:10 PM84 °FPartly cloudy.5 mph79%29.77 "Hg4 mi
10:40 PM84 °FPartly cloudy.6 mph79%29.77 "Hg4 mi
10:10 PM84 °FPartly cloudy.6 mph79%29.77 "Hg4 mi
9:40 PM84 °FPartly cloudy.3 mph79%29.77 "Hg4 mi
9:10 PM84 °FPartly cloudy.No wind79%29.77 "Hg4 mi
8:40 PM84 °FPartly cloudy.No wind79%29.74 "Hg4 mi
7:40 PM84 °FPartly cloudy.5 mph79%29.71 "Hg2 mi
7:10 PM84 °FPartly cloudy.3 mph79%29.71 "Hg2 mi
6:40 PM82 °FPartly cloudy.2 mph84%29.68 "Hg2 mi
5:40 PM86 °FScattered clouds.5 mph75%29.68 "Hg4 mi
5:10 PM88 °FScattered clouds.10 mph66%29.65 "Hg4 mi
4:40 PM90 °FScattered clouds.8 mph63%29.65 "Hg4 mi
3:40 PM91 °FScattered clouds.10 mph56%29.65 "Hg4 mi
2:40 PM93 °FScattered clouds.9 mph53%29.65 "Hg5 mi
2:10 PM93 °FScattered clouds.7 mph53%29.65 "Hg5 mi
1:40 PM93 °FScattered clouds.6 mph53%29.65 "Hg5 mi
1:10 PM93 °FScattered clouds.9 mph53%29.68 "Hg5 mi
12:40 PM91 °FScattered clouds.8 mph56%29.68 "Hg5 mi
12:10 PM91 °FPassing clouds.6 mph56%29.71 "Hg5 mi
11:40 AM91 °FPassing clouds.3 mph56%29.71 "Hg5 mi
11:10 AM91 °FPassing clouds.6 mph56%29.74 "Hg5 mi
10:40 AM90 °FPassing clouds.6 mph59%29.74 "Hg5 mi
10:10 AM88 °FClear.8 mph66%29.74 "Hg5 mi
9:40 AM88 °FPassing clouds.8 mph66%29.74 "Hg4 mi
9:10 AM88 °FScattered clouds.7 mph66%29.77 "Hg4 mi
8:40 AM86 °FPassing clouds.8 mph70%29.74 "Hg4 mi
8:10 AM84 °FPassing clouds.9 mph79%29.74 "Hg4 mi
Weather by CustomWeather, © 2014

See weather overviewHow to use our weather pages